Wind_Speed
37 39 40 40 40 41 39 37 36 36 36 36 34 34 35 34 33 33 32 31 31 30 29 28 28 27 27 27 26 26 27 27 26 26 26 27 28 28
33 36 38 39 39 40 40 38 38 37 37 36 35 35 35 34 33 33 33 32 32 31 30 30 30 29 29 29 29 29 28 27 27 27 26 27 28 28
30 33 36 37 38 38 39 39 39 38 37 36 35 34 34 33 33 33 33 33 33 33 33 32 32 31 31 31 30 29 29 28 28 28 28 28 28 28
28 30 33 35 37 37 38 38 38 38 36 35 35 35 35 34 33 34 34 34 34 34 33 33 32 31 31 31 31 30 30 29 29 29 28 28 28 28
25 27 30 33 34 35 35 36 36 36 36 35 35 35 35 35 35 34 34 33 34 33 33 33 33 32 32 32 31 30 29 29 29 29 29 28 27 27
23 24 26 28 31 32 33 33 35 35 35 34 34 34 35 35 34 34 34 34 33 34 34 34 34 33 33 32 31 30 29 29 28 28 27 27 27 26
20 22 23 24 27 28 30 31 32 33 33 33 32 31 32 33 33 33 33 33 32 32 34 35 34 33 32 31 31 30 30 29 28 27 26 25 24 23
17 19 21 22 23 25 28 28 29 30 32 32 32 30 30 31 31 31 31 31 32 32 33 33 32 31 31 31 30 30 29 28 27 26 24 22 20 19
13 16 18 19 20 21 24 25 25 26 28 29 28 28 28 28 29 30 29 29 30 30 31 31 29 28 29 29 28 28 27 26 24 22 21 19 18 16
10 13 15 17 18 19 20 23 23 23 24 25 26 27 27 27 28 28 28 27 28 29 28 27 26 26 27 26 25 24 23 21 20 19 18 17 16 15
7 9 11 13 15 17 18 19 20 21 22 22 23 25 25 25 24 25 24 24 25 25 24 23 23 22 22 22 21 21 21 19 18 17 16 15 15 14
2 6 8 10 13 14 16 17 18 19 20 20 20 22 23 23 22 22 22 22 23 22 22 22 21 20 19 19 19 19 18 17 17 16 15 15 14 14
1 2 5 7 9 12 13 14 15 16 17 18 18 19 19 19 20 21 21 21 21 21 21 20 19 18 19 18 18 17 17 16 15 15 15 14 14 13
3 1 3 5 7 9 10 11 13 14 14 16 17 18 18 18 18 18 19 18 18 19 19 18 18 18 18 18 18 18 16 15 14 14 14 14 13 13
5 2 1 4 6 8 8 9 11 12 12 14 15 15 16 16 17 17 18 18 18 18 18 18 18 19 18 18 18 17 16 15 15 14 14 13 13 12
5 3 1 2 4 6 8 8 9 10 11 12 13 13 14 15 16 16 17 17 17 17 17 18 18 17 17 17 17 16 16 15 15 14 14 14 13 13
5 3 2 1 2 4 6 7 8 9 9 10 11 12 13 14 15 15 15 15 15 16 16 16 16 16 16 16 16 16 16 15 15 15 15 14 14 14
5 4 2 1 2 3 5 6 8 9 9 9 10 11 12 14 14 14 15 15 16 16 16 16 17 17 16 16 15 15 15 15 15 15 15 15 14 14
5 4 3 1 2 3 4 5 7 8 8 9 10 10 12 13 13 14 14 14 14 15 16 16 16 16 16 16 16 16 16 16 16 15 15 15 15 15
7 6 4 4 4 4 5 6 7 7 8 9 10 10 11 12 13 14 14 15 15 15 15 15 16 16 16 16 16 16 16 16 16 16 16 16 16 16
10 9 8 7 6 6 7 7 8 9 9 10 11 11 12 12 13 13 14 14 14 14 15 15 16 16 16 16 16 16 16 16 16 16 16 17 17 17
14 13 12 11 10 10 10 10 10 10 10 10 11 12 12 13 13 14 14 14 14 14 15 16 16 16 16 16 16 16 16 17 17 17 17 17 17 17
17 16 16 15 15 14 14 14 14 13 13 13 13 13 14 14 14 15 15 16 15 15 16 16 17 16 17 17 17 17 17 17 17 17 17 17 18 18
Wind_Direction
231 231 232 233 232 232 232 231 233 235 235 236 236 237 238 238 239 241 241 243 245 247 249 249 251 253 255 257 260 263 266 268 269 272 275 278 281 284
231 230 231 232 234 234 234 233 233 235 235 235 236 237 238 239 239 239 240 244 246 247 249 251 253 255 257 258 261 263 266 268 269 272 275 278 282 284
232 231 230 231 234 235 235 235 235 236 236 236 236 237 239 240 239 240 242 244 246 248 251 252 254 254 256 258 262 264 265 267 269 270 273 277 280 282
233 231 230 232 234 236 237 237 237 238 238 239 239 239 240 242 243 243 245 246 247 249 251 253 254 255 257 259 261 262 264 266 268 270 273 277 281 285
234 233 232 232 234 236 238 238 238 239 239 240 241 241 240 241 244 246 246 248 249 249 251 252 253 254 256 259 259 260 263 266 267 270 272 276 281 285
235 234 233 233 234 235 236 238 239 239 238 238 240 240 240 241 242 245 248 248 248 250 249 250 252 253 254 256 256 259 262 264 266 269 272 277 280 283
234 233 234 235 235 235 235 236 237 238 237 238 239 241 241 241 243 245 246 246 248 249 248 250 251 251 252 254 256 258 261 263 266 269 272 276 279 282
234 233 234 235 236 236 234 235 236 235 236 238 240 240 243 244 245 245 244 245 248 248 250 252 252 251 252 254 255 257 259 261 264 267 270 274 276 278
233 231 231 232 232 233 232 231 232 234 236 237 239 241 243 243 244 244 242 246 248 247 248 249 249 250 253 254 255 256 259 261 264 266 268 271 273 275
231 229 229 229 229 229 229 230 229 229 233 235 238 238 240 240 241 242 241 243 244 246 245 246 247 250 250 252 253 253 255 256 258 261 263 266 270 272
227 224 223 225 224 225 226 226 224 225 229 231 234 234 235 236 236 237 238 239 240 241 241 242 243 246 245 245 245 245 247 251 255 257 258 261 264 268
198 207 212 216 216 216 219 219 221 224 227 226 228 230 231 232 232 234 237 239 239 238 236 238 239 242 241 240 244 244 244 248 251 251 254 258 261 262
78 198 207 211 213 211 212 215 217 221 222 221 223 222 226 229 232 234 234 234 233 234 234 234 235 236 236 238 240 239 242 246 246 248 252 255 256 258
41 147 195 205 208 206 209 212 212 212 215 219 220 222 224 226 227 227 226 226 228 230 231 231 233 234 235 236 235 236 238 240 242 247 250 249 250 252
45 62 180 200 204 205 204 208 215 216 215 218 218 216 217 218 220 222 222 224 228 229 230 231 232 233 236 236 236 236 234 235 240 245 244 243 247 252
33 39 74 186 197 201 203 205 209 216 216 215 213 217 218 218 218 220 222 225 227 227 229 230 231 232 233 235 234 233 234 237 240 241 240 242 247 253
30 30 27 164 198 205 208 210 210 212 214 214 214 220 219 215 218 221 220 222 224 227 228 228 229 230 231 229 228 229 233 237 238 239 242 246 249 253
19 19 14 325 216 213 211 214 213 213 218 216 215 216 217 215 216 218 220 222 225 227 228 228 229 229 229 229 230 232 235 237 238 241 244 247 250 253
342 341 334 305 238 224 219 216 217 219 223 223 223 220 218 218 219 221 223 223 225 228 228 229 229 231 231 230 232 235 237 239 241 243 246 249 252 256
310 307 299 287 266 250 240 234 229 228 226 227 227 225 224 224 224 224 226 227 229 230 230 230 230 231 233 234 235 237 238 241 243 245 248 252 256 259
289 286 281 275 268 261 253 248 243 239 236 236 233 232 231 231 231 232 230 230 229 228 228 229 230 232 233 234 236 238 241 243 245 248 251 254 257 260
278 274 271 268 264 260 257 252 248 245 243 241 238 235 235 236 235 233 232 230 229 229 230 230 231 233 234 237 239 241 243 245 248 251 253 256 259 262
274 270 267 264 262 259 257 254 251 248 246 244 244 242 240 239 237 236 235 232 231 232 233 234 235 237 239 241 241 243 245 248 251 253 254 257 260 263
Height
5775 5780 5785 5789 5794 5799 5803 5807 5812 5815 5819 5823 5826 5830 5833 5836 5839 5842 5844 5847 5849 5851 5853 5855 5856 5857 5858 5858 5859 5859 5859 5859 5859 5859 5858 5857 5856 5855
5768 5773 5777 5782 5786 5791 5795 5799 5803 5808 5811 5815 5818 5822 5825 5829 5832 5834 5837 5840 5842 5844 5846 5848 5849 5850 5851 5852 5852 5852 5852 5852 5852 5852 5851 5850 5849 5848
5761 5766 5770 5774 5779 5783 5787 5791 5795 5800 5803 5807 5810 5814 5817 5821 5824 5827 5830 5832 5834 5837 5839 5840 5842 5843 5844 5845 5845 5845 5846 5846 5846 5845 5845 5844 5842 5841
5755 5759 5763 5767 5771 5775 5779 5783 5787 5791 5795 5798 5802 5806 5810 5813 5816 5819 5822 5824 5827 5829 5831 5832 5834 5835 5836 5837 5838 5838 5839 5839 5838 5838 5838 5837 5835 5833
5750 5753 5756 5760 5764 5768 5771 5775 5778 5782 5786 5790 5794 5798 5801 5805 5808 5811 5814 5816 5819 5821 5822 5824 5826 5827 5829 5829 5830 5831 5831 5831 5831 5831 5830 5829 5828 5826
5744 5747 5750 5753 5757 5761 5764 5768 5771 5775 5778 5782 5786 5790 5793 5797 5800 5803 5806 5808 5810 5812 5814 5816 5818 5819 5820 5821 5822 5823 5823 5823 5823 5823 5823 5822 5820 5819
5739 5742 5745 5748 5751 5754 5758 5761 5764 5768 5771 5775 5779 5782 5785 5789 5792 5795 5797 5799 5801 5804 5806 5808 5810 5811 5812 5813 5814 5815 5816 5816 5816 5816 5815 5815 5813 5812
5735 5737 5740 5743 5745 5748 5751 5754 5758 5761 5765 5769 5772 5775 5778 5782 5784 5787 5789 5792 5794 5796 5798 5800 5801 5803 5804 5805 5806 5808 5808 5809 5809 5809 5809 5808 5807 5805
5732 5734 5736 5738 5741 5743 5746 5749 5752 5755 5759 5762 5766 5769 5772 5775 5778 5780 5782 5784 5787 5789 5790 5792 5794 5795 5797 5798 5799 5800 5801 5802 5802 5802 5802 5802 5801 5800
5729 5730 5732 5734 5736 5739 5741 5744 5747 5750 5753 5757 5760 5763 5766 5768 5771 5773 5775 5777 5779 5781 5783 5785 5787 5788 5790 5791 5792 5793 5795 5795 5796 5796 5796 5796 5796 5795
5727 5728 5729 5731 5733 5735 5738 5740 5742 5745 5748 5751 5754 5756 5759 5762 5764 5766 5769 5771 5773 5775 5777 5779 5780 5782 5783 5785 5786 5787 5788 5790 5790 5791 5791 5791 5791 5791
5727 5727 5728 5729 5731 5732 5735 5737 5739 5742 5744 5746 5749 5751 5754 5756 5758 5761 5763 5765 5767 5769 5771 5773 5775 5776 5778 5779 5780 5782 5783 5784 5785 5786 5786 5787 5787 5786
5728 5727 5728 5729 5730 5731 5733 5735 5737 5739 5741 5743 5745 5747 5750 5752 5754 5756 5758 5761 5763 5765 5767 5768 5770 5771 5773 5775 5776 5777 5778 5779 5780 5781 5781 5782 5782 5782
5729 5729 5729 5729 5730 5730 5732 5733 5735 5737 5738 5740 5742 5744 5746 5748 5750 5752 5754 5756 5758 5760 5762 5763 5765 5767 5769 5770 5772 5773 5774 5775 5776 5777 5777 5778 5778 5778
5731 5730 5729 5729 5729 5730 5731 5732 5733 5735 5736 5738 5739 5741 5743 5744 5746 5749 5750 5752 5754 5756 5757 5759 5761 5763 5764 5766 5767 5769 5770 5771 5772 5773 5773 5774 5775 5775
5733 5731 5730 5730 5730 5730 5731 5732 5733 5734 5735 5736 5737 5739 5740 5742 5744 5746 5747 5749 5751 5752 5754 5755 5757 5759 5760 5762 5763 5764 5766 5767 5768 5769 5770 5771 5771 5771
5734 5733 5732 5731 5730 5730 5731 5731 5732 5733 5734 5735 5736 5737 5738 5740 5741 5743 5745 5746 5748 5749 5750 5752 5754 5755 5756 5758 5759 5761 5762 5763 5764 5765 5766 5767 5767 5767
5736 5734 5733 5732 5731 5731 5731 5731 5731 5732 5733 5733 5734 5735 5736 5738 5739 5740 5741 5743 5744 5746 5747 5748 5750 5751 5753 5754 5756 5757 5758 5760 5760 5761 5762 5763 5763 5764
5737 5735 5734 5732 5732 5731 5731 5730 5731 5731 5731 5732 5732 5733 5734 5735 5736 5737 5738 5740 5741 5742 5743 5745 5746 5747 5749 5750 5752 5753 5755 5756 5756 5757 5758 5759 5759 5760
5736 5735 5734 5732 5731 5731 5730 5730 5730 5730 5730 5730 5731 5731 5732 5733 5734 5735 5736 5737 5738 5739 5740 5741 5742 5744 5745 5747 5748 5749 5750 5751 5752 5753 5754 5754 5755 5755
5735 5733 5732 5731 5730 5729 5729 5728 5728 5728 5728 5728 5729 5729 5730 5730 5731 5732 5732 5733 5734 5735 5736 5738 5739 5740 5741 5742 5744 5745 5746 5747 5748 5748 5749 5750 5750 5750
5732 5730 5729 5729 5728 5727 5727 5726 5726 5726 5726 5726 5726 5726 5727 5727 5728 5728 5729 5730 5731 5732 5733 5734 5735 5736 5737 5738 5739 5741 5742 5742 5743 5744 5744 5745 5745 5745
5727 5726 5725 5724 5724 5723 5723 5723 5722 5722 5722 5722 5722 5723 5723 5723 5724 5724 5725 5726 5727 5728 5729 5730 5731 5732 5733 5734 5735 5736 5737 5738 5738 5739 5739 5739 5740 5740